Printer-friendly version

IAU Minor Planet Center

Minor Planet Center

MPEC 2007-M35 : 2007 MJ13

The following Minor Planet Electronic Circular may be linked-to from your own Web pages, but must not otherwise be redistributed electronically.


Read MPEC 2007-M34 Read MPEC 2007-M36


M.P.E.C. 2007-M35                                Issued 2007 June 24, 03:47 UT

     The Minor Planet Electronic Circulars contain information on unusual
         minor planets and routine data on comets.  They are published
   on behalf of Commission 20 of the International Astronomical Union by the
          Minor Planet Center, Smithsonian Astrophysical Observatory,
                          Cambridge, MA 02138, U.S.A.

             Prepared using the Tamkin Foundation Computer Network

                              MPC@CFA.HARVARD.EDU
          URL http://www.cfa.harvard.edu/iau/mpc.html  ISSN 1523-6714

                                   2007 MJ13

Observations:
     K07M13J* C2007 06 20.17294 14 32 43.27 -19 47 33.5          18.4   EM035704
     K07M13J  C2007 06 20.18298 14 32 31.57 -19 41 17.9          18.6   EM035704
     K07M13J  C2007 06 20.19299 14 32 19.86 -19 35 03.3          18.5   EM035704
     K07M13J  C2007 06 20.20280 14 32 08.36 -19 28 54.9          18.8   EM035704
     K07M13J  C2007 06 21.17823 14 12 45.98 -06 43 29.4          17.8   EM035704
     K07M13J  C2007 06 21.18795 14 12 30.68 -06 34 07.4          18.1   EM035704
     K07M13J  C2007 06 21.19767 14 12 15.35 -06 24 41.4          18.4   EM035704
     K07M13J  C2007 06 21.20742 14 11 59.99 -06 15 11.9          18.4   EM035704
     K07M13J  C2007 06 21.21718 14 11 44.57 -06 05 38.0          18.7   EM035704
     K07M13J  C2007 06 22.16589 13 45 09.66 +12 19 09.8          18.1 R EM035649
     K07M13J  C2007 06 22.16692 13 45 07.34 +12 20 31.7          17.8 R EM035649
     K07M13J  C2007 06 22.16796 13 45 05.09 +12 21 54.4          17.8 R EM035649
     K07M13J  C2007 06 22.16899 13 45 02.88 +12 23 16.5          17.7 R EM035649
     K07M13J  C2007 06 22.17002 13 45 00.66 +12 24 38.4          17.6 R EM035649
     K07M13J  C2007 06 22.17106 13 44 58.36 +12 26 00.9          18.1 R EM035649
     K07M13J  C2007 06 22.17209 13 44 56.15 +12 27 22.2          17.7 R EM035649
     K07M13J  C2007 06 22.17312 13 44 53.81 +12 28 45.0          17.6 R EM035649
     K07M13J  C2007 06 22.21129 13 43 36.49 +13 21 03.1          17.4 R EM035651
     K07M13J  C2007 06 22.21168 13 43 35.60 +13 21 34.1          17.3 R EM035651
     K07M13J  C2007 06 22.21206 13 43 34.75 +13 22 04.8          17.1 R EM035651
     K07M13J  C2007 06 22.21246 13 43 33.89 +13 22 36.0          17.3 R EM035651
     K07M13J 5C2007 06 22.29062 13 40 43.39 +15 07 24.0          17.2 R EM035673
     K07M13J 5C2007 06 22.29479 13 40 34.08 +15 13 02.6                 EM035673
     K07M13J 5C2007 06 22.29710 13 40 29.00 +15 16 07.9                 EM035673
     K07M13J 5C2007 06 22.30053 13 40 21.30 +15 20 47.3                 EM035673
     K07M13J  C2007 06 23.88090 12 23 49.54 +49 36 54.4          19.2 V EM035B03
     K07M13J  C2007 06 23.88605 12 23 28.78 +49 42 08.4          19.4 V EM035B03
     K07M13J  C2007 06 23.89091 12 23 09.39 +49 47 01.4          19.3 V EM035B03

Observer details:
649 Powell Observatory, Louisburg.  Observer R. Fredrick.  0.75-m Newtonian
    reflector + CCD.
651 Grasslands Observatory, Tucson.  Observer J. E. McGaha.  0.62-m f/5.1
    Newtonian reflector + CCD.
673 Table Mountain Observatory, Wrightwood.  Observer H. Rhoades.  0.61-m f/16
    Cassegrain + CCD.
704 Lincoln Laboratory ETS, New Mexico.  Observers M. Bezpalko, D. Torres,
    R. Kracke, G. Spitz, J. Kistler.  Measurers J. Stuart, S. Scruggs.  1.0-m
    f/2.15 reflector + CCD.
B03 Alter Satzberg, Vienna.  Observer M. Pietschnig.  0.35-m f/7
    Schmidt-Cassegrain + CCD.

Orbital elements:
2007 MJ13                                                Earth MOID = 0.0068 AU
Epoch 2007 Apr. 10.0 TT = JDT 2454200.5                 MPC
M 292.60840              (2000.0)            P               Q
n   0.56822188     Peri.   58.38683     +0.81785243     +0.54392384
a   1.4436350      Node   268.02257     -0.57077217     +0.72539067
e   0.3811456      Incl.   10.83024     -0.07305159     +0.42184740
P   1.73           H   24.6           G   0.15           U   7
Residuals in seconds of arc
070620 704  0.4-  0.2-    070622 649  0.7-  0.4-    070622 651  0.2+  0.4+
070620 704  0.1-  1.1+    070622 649  0.5-  0.5-    070622 673  0.1+  0.6+
070620 704  0.2-  0.3+    070622 649  0.0   0.4-    070622 673  0.1+  1.3+
070620 704  0.4-  1.3-    070622 649  0.4+  0.5-    070622 673  1.2+  0.6-
070621 704  0.1-  1.2+    070622 649  0.1-  0.9-    070622 673  0.5+  0.7+
070621 704  0.1+  0.3-    070622 649  0.4+  1.6-    070623 B03  0.2-  0.4-
070621 704  0.2+  0.2-    070622 649  1.1-  0.9-    070623 B03  0.8-  0.7+
070621 704  0.7+  0.8-    070622 651  0.1+  1.4+    070623 B03  0.6+  0.7-
070621 704  0.6+  0.1+    070622 651  0.2-  1.1+
070622 649  0.5+  0.3-    070622 651  0.3-  1.3+

Ephemeris:
2007 MJ13                a,e,i = 1.44, 0.38, 11                  q = 0.8934
Date    TT    R. A. (2000) Decl.     Delta      r     Elong.  Phase     V
2007 06 19    14 49.54   -29 11.5    0.0269   1.037   139.8    39.2    18.4
2007 06 20    14 35.61   -21 25.5    0.0219   1.032   134.7    44.4    18.1
2007 06 21    14 16.91   -09 23.9    0.0176   1.027   125.9    53.4    17.8
2007 06 22    13 50.78   +08 46.3    0.0147   1.022   111.0    68.2    17.9
2007 06 23    13 12.79   +31 36.4    0.0140   1.017    91.2    88.1    18.5
2007 06 24    12 16.56   +51 38.4    0.0159   1.012    73.0   106.2    19.6
2007 06 25    10 57.84   +63 50.0    0.0196   1.007    60.9   118.2    20.8
2007 06 26    09 27.17   +69 08.0    0.0243   1.002    53.7   125.2    21.8
2007 06 27    08 08.40   +70 22.5    0.0295   0.998    49.6   129.1    22.6
2007 06 28    07 12.24   +69 53.1    0.0350   0.993    47.1   131.4    23.2
2007 06 29    06 34.50   +68 51.3    0.0407   0.989    45.6   132.7    23.6

Gareth V. Williams           (C) Copyright 2007 MPC           M.P.E.C. 2007-M35

Read MPEC 2007-M34 Read MPEC 2007-M36


Our Web policy. Index to the CBAT/MPC/ICQ pages.


Valid HTML 4.01!